• In Deutschland
  • Länderverzeichnis
  • Für 7 Tage
  • Wassertemperatur
  • Satellitenkarten
  • Wetterkarte
  • Widgets
  • user-avatar
    Anmelden

    Stündliche Wetter Sinsheim

    Heute, 21 Oktober, Samstag

    Zeit Temperatur Niederschläge Wind Luftdruck Luftfeuchtigkeit
    00:00 +13°C° 0 mm 2 m/S 748 mmHg 92%
    01:00 +12°C° 0 mm 2 m/S 748 mmHg 92%
    02:00 +12°C° 0 mm 2 m/S 747 mmHg 93%
    03:00 +12°C° 0 mm 2 m/S 747 mmHg 93%
    04:00 +12°C° 0 mm 2 m/S 747 mmHg 93%
    05:00 +12°C° 0 mm 2 m/S 747 mmHg 93%
    06:00 +12°C° 0 mm 2 m/S 747 mmHg 93%
    07:00 +12°C° 0 mm 2 m/S 747 mmHg 93%
    08:00 +14°C° 0 mm 2 m/S 747 mmHg 87%
    09:00 +16°C° 0 mm 3 m/S 747 mmHg 81%
    10:00 +17°C° 0 mm 4 m/S 747 mmHg 75%
    11:00 +19°C° 0 mm 4 m/S 746 mmHg 70%
    12:00 +20°C° 0 mm 4 m/S 746 mmHg 65%
    13:00 +21°C° 0 mm 4 m/S 746 mmHg 59%
    14:00 +20°C° 0,3 mm 4 m/S 746 mmHg 67%
    15:00 +19°C° 0,3 mm 4 m/S 746 mmHg 74%
    16:00 +17°C° 0,3 mm 3 m/S 746 mmHg 81%
    17:00 +17°C° 0,6 mm 3 m/S 746 mmHg 83%
    18:00 +16°C° 0,6 mm 3 m/S 747 mmHg 85%
    19:00 +14°C° 0,6 mm 3 m/S 747 mmHg 86%
    20:00 +13°C° 0,9 mm 3 m/S 747 mmHg 87%
    21:00 +12°C° 0,9 mm 4 m/S 748 mmHg 87%
    22:00 +11°C° 0,9 mm 4 m/S 748 mmHg 87%
    23:00 +11°C° 0,1 mm 4 m/S 748 mmHg 87%

    Morgen, 22 Oktober, Sonntag

    Zeit Temperatur Niederschläge Wind Luftdruck Luftfeuchtigkeit
    00:00 +11°C° 0,1 mm 4 m/S 749 mmHg 87%
    01:00 +11°C° 0,1 mm 4 m/S 749 mmHg 87%
    02:00 +10°C° 0 mm 4 m/S 749 mmHg 87%
    03:00 +10°C° 0 mm 4 m/S 749 mmHg 87%
    04:00 +8°C° 0 mm 4 m/S 749 mmHg 87%
    05:00 +8°C° 0 mm 4 m/S 749 mmHg 87%
    06:00 +8°C° 0 mm 4 m/S 749 mmHg 87%
    07:00 +8°C° 0 mm 4 m/S 749 mmHg 87%
    08:00 +8°C° 0 mm 4 m/S 749 mmHg 84%
    09:00 +9°C° 0 mm 5 m/S 749 mmHg 81%
    10:00 +9°C° 0 mm 5 m/S 749 mmHg 78%
    11:00 +10°C° 0 mm 5 m/S 749 mmHg 74%
    12:00 +10°C° 0 mm 5 m/S 749 mmHg 71%
    13:00 +12°C° 0 mm 5 m/S 748 mmHg 68%
    14:00 +12°C° 0,1 mm 5 m/S 748 mmHg 68%
    15:00 +12°C° 0,1 mm 5 m/S 748 mmHg 68%
    16:00 +12°C° 0,1 mm 4 m/S 748 mmHg 69%
    17:00 +11°C° 0 mm 4 m/S 748 mmHg 73%
    18:00 +10°C° 0 mm 4 m/S 749 mmHg 77%
    19:00 +9°C° 0 mm 3 m/S 749 mmHg 82%
    20:00 +9°C° 0 mm 3 m/S 749 mmHg 83%
    21:00 +8°C° 0 mm 4 m/S 750 mmHg 84%
    22:00 +7°C° 0 mm 4 m/S 750 mmHg 85%
    23:00 +7°C° 0 mm 4 m/S 750 mmHg 86%

    übermorgen, 23 Oktober, Montag

    Zeit Temperatur Niederschläge Wind Luftdruck Luftfeuchtigkeit
    00:00 +7°C° 0 mm 4 m/S 750 mmHg 86%
    01:00 +7°C° 0 mm 4 m/S 750 mmHg 87%
    02:00 +7°C° 0,1 mm 4 m/S 750 mmHg 87%
    03:00 +7°C° 0,1 mm 4 m/S 750 mmHg 87%
    04:00 +7°C° 0,1 mm 4 m/S 750 mmHg 87%
    05:00 +7°C° 0,2 mm 4 m/S 750 mmHg 88%
    06:00 +7°C° 0,2 mm 4 m/S 750 mmHg 89%
    07:00 +7°C° 0,2 mm 4 m/S 750 mmHg 89%
    08:00 +8°C° 0,1 mm 4 m/S 751 mmHg 87%
    09:00 +8°C° 0,1 mm 4 m/S 751 mmHg 85%
    10:00 +10°C° 0,1 mm 4 m/S 751 mmHg 83%
    11:00 +10°C° 0,1 mm 4 m/S 751 mmHg 83%
    12:00 +10°C° 0,1 mm 4 m/S 751 mmHg 82%
    13:00 +11°C° 0,1 mm 4 m/S 751 mmHg 82%
    14:00 +11°C° 0,1 mm 4 m/S 751 mmHg 83%
    15:00 +11°C° 0,1 mm 4 m/S 751 mmHg 84%
    16:00 +11°C° 0,1 mm 4 m/S 751 mmHg 84%
    17:00 +10°C° 0 mm 3 m/S 752 mmHg 86%
    18:00 +10°C° 0 mm 3 m/S 752 mmHg 89%
    19:00 +10°C° 0 mm 3 m/S 752 mmHg 91%
    20:00 +10°C° 0,1 mm 3 m/S 752 mmHg 91%
    21:00 +10°C° 0,1 mm 2 m/S 752 mmHg 92%
    22:00 +9°C° 0,1 mm 2 m/S 753 mmHg 93%
    23:00 +9°C° 0,2 mm 2 m/S 753 mmHg 93%

    24 Oktober, Dienstag

    Zeit Temperatur Niederschläge Wind Luftdruck Luftfeuchtigkeit
    00:00 +10°C° 0,2 mm 2 m/S 753 mmHg 93%
    01:00 +10°C° 0,2 mm 2 m/S 753 mmHg 93%
    02:00 +10°C° 0,1 mm 2 m/S 753 mmHg 93%
    03:00 +10°C° 0,1 mm 2 m/S 752 mmHg 93%
    04:00 +10°C° 0,1 mm 2 m/S 752 mmHg 93%
    05:00 +10°C° 0,2 mm 2 m/S 753 mmHg 93%
    06:00 +10°C° 0,2 mm 2 m/S 753 mmHg 93%
    07:00 +10°C° 0,2 mm 2 m/S 753 mmHg 93%
    08:00 +10°C° 0,3 mm 2 m/S 753 mmHg 92%
    09:00 +12°C° 0,3 mm 2 m/S 753 mmHg 92%
    10:00 +12°C° 0,3 mm 2 m/S 754 mmHg 91%
    11:00 +13°C° 0,1 mm 2 m/S 754 mmHg 90%
    12:00 +13°C° 0,1 mm 2 m/S 754 mmHg 89%
    13:00 +14°C° 0,1 mm 2 m/S 754 mmHg 88%
    14:00 +14°C° 0 mm 2 m/S 754 mmHg 88%
    15:00 +14°C° 0 mm 1 m/S 754 mmHg 89%
    16:00 +14°C° 0 mm 1 m/S 754 mmHg 90%
    17:00 +14°C° 0 mm 1 m/S 754 mmHg 92%
    18:00 +13°C° 0 mm 1 m/S 754 mmHg 93%
    19:00 +13°C° 0 mm 1 m/S 754 mmHg 95%
    20:00 +12°C° 0 mm 1 m/S 754 mmHg 95%
    21:00 +12°C° 0 mm 1 m/S 754 mmHg 95%
    22:00 +12°C° 0 mm 1 m/S 754 mmHg 96%
    23:00 +12°C° 0 mm 1 m/S 754 mmHg 95%

    25 Oktober, Mittwoch

    Zeit Temperatur Niederschläge Wind Luftdruck Luftfeuchtigkeit
    00:00 +12°C° 0 mm 1 m/S 754 mmHg 95%
    01:00 +12°C° 0 mm 1 m/S 754 mmHg 95%
    02:00 +12°C° 0 mm 1 m/S 754 mmHg 95%
    03:00 +12°C° 0 mm 1 m/S 754 mmHg 95%
    04:00 +12°C° 0 mm 1 m/S 754 mmHg 94%
    05:00 +12°C° 0 mm 1 m/S 754 mmHg 94%
    06:00 +12°C° 0 mm 1 m/S 754 mmHg 94%
    07:00 +12°C° 0 mm 1 m/S 754 mmHg 94%
    08:00 +13°C° 0 mm 1 m/S 754 mmHg 89%
    09:00 +14°C° 0 mm 1 m/S 754 mmHg 85%
    10:00 +15°C° 0 mm 1 m/S 755 mmHg 81%
    11:00 +18°C° 0 mm 1 m/S 754 mmHg 76%
    12:00 +19°C° 0 mm 1 m/S 754 mmHg 71%
    13:00 +20°C° 0 mm 1 m/S 754 mmHg 67%
    14:00 +20°C° 0 mm 1 m/S 754 mmHg 68%
    15:00 +20°C° 0 mm 1 m/S 754 mmHg 70%
    16:00 +20°C° 0 mm 1 m/S 753 mmHg 72%
    17:00 +18°C° 0 mm 1 m/S 753 mmHg 77%
    18:00 +16°C° 0 mm 1 m/S 754 mmHg 81%
    19:00 +15°C° 0 mm 1 m/S 754 mmHg 86%
    20:00 +14°C° 0 mm 1 m/S 754 mmHg 87%
    21:00 +14°C° 0 mm 1 m/S 754 mmHg 88%
    22:00 +14°C° 0 mm 1 m/S 754 mmHg 89%
    23:00 +13°C° 0 mm 1 m/S 754 mmHg 89%

    26 Oktober, Donnerstag

    Zeit Temperatur Niederschläge Wind Luftdruck Luftfeuchtigkeit
    00:00 +13°C° 0 mm 1 m/S 754 mmHg 90%
    01:00 +13°C° 0 mm 1 m/S 754 mmHg 90%
    02:00 +12°C° 0 mm 1 m/S 754 mmHg 90%
    03:00 +12°C° 0 mm 1 m/S 754 mmHg 89%
    04:00 +12°C° 0 mm 1 m/S 754 mmHg 89%
    05:00 +12°C° 0 mm 1 m/S 754 mmHg 89%
    06:00 +12°C° 0 mm 1 m/S 754 mmHg 88%
    07:00 +12°C° 0 mm 1 m/S 754 mmHg 88%
    08:00 +13°C° 0 mm 1 m/S 754 mmHg 81%
    09:00 +15°C° 0 mm 1 m/S 754 mmHg 75%
    10:00 +18°C° 0 mm 1 m/S 754 mmHg 68%
    11:00 +19°C° 0 mm 1 m/S 754 mmHg 64%
    12:00 +20°C° 0 mm 1 m/S 754 mmHg 59%
    13:00 +22°C° 0 mm 1 m/S 754 mmHg 55%
    14:00 +21°C° 0 mm 1 m/S 754 mmHg 58%
    15:00 +21°C° 0 mm 1 m/S 754 mmHg 62%
    16:00 +20°C° 0 mm 1 m/S 754 mmHg 65%
    17:00 +19°C° 0 mm 1 m/S 754 mmHg 70%
    18:00 +18°C° 0 mm 1 m/S 754 mmHg 75%
    19:00 +15°C° 0 mm 1 m/S 754 mmHg 79%
    20:00 +15°C° 0 mm 1 m/S 754 mmHg 81%
    21:00 +14°C° 0 mm 1 m/S 754 mmHg 82%
    22:00 +14°C° 0 mm 1 m/S 754 mmHg 84%
    23:00 +14°C° 0 mm 1 m/S 754 mmHg 84%
    Mehr zeigen